IRIDIUM 33 DEB, 46734

Orbit data source: Space-Track

IRIDIUM 33 DEB, 46734 is space debris in LEO originally from a launch on Sun, 14 Sep 1997 UTC launched from the Tyuratam Missile And Space Complex (TTMTR). The debris from Iridium 33, an American commercial communications satellite, has been tracked extensively since its accidental collision with the defunct Russian satellite Cosmos 2251 in 2009. This event, occurring at high speed in low Earth orbit (LEO), generated thousands of pieces of space debris, significantly increasing the risk of further collisions. The Iridium 33 debris cloud has impacted space traffic management and orbital debris mitigation strategies, making it a subject of ongoing study in space situational awareness.

Loading next visibility...
Identifier
46734, 1997-051ABR
Orbit
LEO
Country
Flag of USUS
Related business
Manufacturer
Unknown
Mission
Spacecraft
Bus & Motor
Unknown
Mass
Unknown
Launch date (UTC)
1997-09-14 (28 years ago)
Launch vehicle
Unknown
Launch site
Tyuratam Missile And Space Complex (TTMTR)
Object type
Payload
Rocket body
Debris
Shape & HBR
Unknown shape, 0.1 m
Radar Cross Section
Small (<0.1 m²)

Expand to show TLE details & history
Last TLE update: 2 days ago

TLE from 2 days ago
0 IRIDIUM 33 DEB
1 46734U 97051ABR 25305.98414304  .00003481  00000-0  10545-2 0  9997
2 46734  86.2675  20.7437 0042617 107.5595  71.5537 14.41516700624239
Epoch: 2025-11-01T23:37Z
TLE epoch observation values (Epoch: 2025-11-01T23:37:09.958Z)
Latitude
0.30401°
Longitude
164.9261°
Altitude
747.01 km
Speed
7.486 km/s
True Right ascension
13h 22m 53s
True Declination
0° 18' 08"
Sunlit
Object was in daylight at epoch
Visualization orbit readout
Latitude
Unknown
Longitude
Unknown
Altitude
Unknown
Speed
Unknown
Apparent Right ascension
Unknown
Apparent Declination
Unknown
Sunlit
N/A
Visualization observer readout
Local Sidereal Time
14:18:38
Azimuth
Unknown
Elevation
Unknown
Doppler factor
Unknown
Orbital elements
Apogee altitude
780.828 km
Perigee altitude
720.069 km
Semi-major axis
7,128.585 km
Eccentricity
0.00426
Inclination
86.2675°
RAAN
20.7437°
Arg. of periapsis
107.5595°
True anomaly
72.01774°
Mean anomaly
71.5537°
Eccentric anomaly
71.78564°
Mean motion
3.6061 °/min
Orbital period
99.83 mins
BSTAR
0.0010545
Loading maneuver chart data...
Computing Atmospheric mass density...
Loading historical data...
Loading historical data...
Loading historical data...
Loading historical data...
Loading historical data...
Loading historical data...
Loading historical data...

Documentation

Showing up to 5 results
|